PIMOHWEATHER Station Historical Data
Daily Summary for May 18, 2020 Units:  Metric    English   Both
Daily Weekly Monthly Yearly
  High: Low: Average:
Temperature: 36.0 °C 29.0 °C 31.9 °C
Dew Point: 28.0 °C 26.0 °C 27.3 °C
Humidity: 90% 61% 78%
Wind Speed: 22km/h 0km/h 9.1km/h
Wind Gust: 32km/h - -
Wind- - SSE
Pressure: 1006.6 hPa 1003.0 hPa -
Precipitation: 0.00 mm    
 
 
Tabular Data for May 18, 2020
Time Temperature Dew Point Pressure Wind Wind Speed Wind Gust Humidity Rainfall Rate (Hourly) solar
00:04 30.0 °C 27.0 °C 1005.5 hPa South 1 km/h 4 km/h 85% 0.00 mm 0.00 W/m2
00:09 30.0 °C 27.0 °C 1005.3 hPa SSE 8 km/h 8 km/h 85% 0.00 mm 0.00 W/m2
00:14 30.0 °C 27.0 °C 1005.2 hPa SSE 9 km/h 12 km/h 85% 0.00 mm 0.00 W/m2
00:19 30.0 °C 27.0 °C 1005.3 hPa SSE 10 km/h 12 km/h 84% 0.00 mm 0.00 W/m2
00:24 30.0 °C 27.0 °C 1005.2 hPa SSW 5 km/h 8 km/h 84% 0.00 mm 0.00 W/m2
00:29 30.0 °C 27.0 °C 1005.2 hPa South 4 km/h 8 km/h 84% 0.00 mm 0.00 W/m2
00:34 30.0 °C 27.0 °C 1005.1 hPa Calm     85% 0.00 mm 0.00 W/m2
00:39 30.0 °C 27.0 °C 1005.1 hPa SSW 3 km/h 4 km/h 84% 0.00 mm 0.00 W/m2
00:44 30.0 °C 27.0 °C 1005.0 hPa SSW 5 km/h 8 km/h 84% 0.00 mm 0.00 W/m2
00:49 30.0 °C 27.0 °C 1005.1 hPa SSE 1 km/h 4 km/h 84% 0.00 mm 0.00 W/m2
00:54 30.0 °C 27.0 °C 1004.9 hPa South 3 km/h 4 km/h 83% 0.00 mm 0.00 W/m2
00:59 30.0 °C 27.0 °C 1004.8 hPa SSE 3 km/h 4 km/h 84% 0.00 mm 0.00 W/m2
01:04 30.0 °C 27.0 °C 1004.7 hPa SE 5 km/h 8 km/h 85% 0.00 mm 0.00 W/m2
01:09 30.0 °C 27.0 °C 1004.7 hPa SSE 5 km/h 8 km/h 86% 0.00 mm 0.00 W/m2
01:14 30.0 °C 27.0 °C 1004.6 hPa Calm     86% 0.00 mm 0.00 W/m2
01:19 30.0 °C 27.0 °C 1004.6 hPa ESE 1 km/h 4 km/h 86% 0.00 mm 0.00 W/m2
01:24 30.0 °C 27.0 °C 1004.3 hPa SSE 1 km/h 4 km/h 85% 0.00 mm 0.00 W/m2
01:29 30.0 °C 27.0 °C 1004.4 hPa SE 3 km/h 4 km/h 85% 0.00 mm 0.00 W/m2
01:34 30.0 °C 27.0 °C 1004.4 hPa SE 3 km/h 4 km/h 84% 0.00 mm 0.00 W/m2
01:39 30.0 °C 27.0 °C 1004.3 hPa Calm     84% 0.00 mm 0.00 W/m2
01:44 30.0 °C 27.0 °C 1004.2 hPa Calm     84% 0.00 mm 0.00 W/m2
01:49 30.0 °C 27.0 °C 1004.4 hPa Calm     84% 0.00 mm 0.00 W/m2
01:54 30.0 °C 27.0 °C 1004.4 hPa SSE 1 km/h 4 km/h 84% 0.00 mm 0.00 W/m2
01:59 30.0 °C 27.0 °C 1004.2 hPa SE 4 km/h 4 km/h 86% 0.00 mm 0.00 W/m2
02:04 30.0 °C 27.0 °C 1004.2 hPa SSE 6 km/h 8 km/h 87% 0.00 mm 0.00 W/m2
02:09 30.0 °C 27.0 °C 1004.1 hPa SSE 5 km/h 8 km/h 87% 0.00 mm 0.00 W/m2
02:14 30.0 °C 27.0 °C 1004.2 hPa SSE 4 km/h 4 km/h 88% 0.00 mm 0.00 W/m2
02:19 30.0 °C 27.0 °C 1004.2 hPa SSE 3 km/h 4 km/h 88% 0.00 mm 0.00 W/m2
02:24 30.0 °C 28.0 °C 1004.0 hPa North 4 km/h 4 km/h 88% 0.00 mm 0.00 W/m2
02:29 29.0 °C 27.0 °C 1004.0 hPa North 6 km/h 8 km/h 87% 0.00 mm 0.00 W/m2
02:34 29.0 °C 27.0 °C 1004.1 hPa North 10 km/h 12 km/h 88% 0.00 mm 0.00 W/m2
02:39 29.0 °C 27.0 °C 1004.2 hPa NNW 5 km/h 8 km/h 88% 0.00 mm 0.00 W/m2
02:44 29.0 °C 27.0 °C 1004.0 hPa North 6 km/h 8 km/h 88% 0.00 mm 0.00 W/m2
02:49 29.0 °C 27.0 °C 1004.2 hPa NNE 6 km/h 8 km/h 88% 0.00 mm 0.00 W/m2
02:54 29.0 °C 27.0 °C 1004.0 hPa NNE 5 km/h 8 km/h 88% 0.00 mm 0.00 W/m2
02:59 29.0 °C 27.0 °C 1004.1 hPa Calm     88% 0.00 mm 0.00 W/m2
03:04 29.0 °C 27.0 °C 1003.9 hPa ESE 5 km/h 8 km/h 88% 0.00 mm 0.00 W/m2
03:09 29.0 °C 27.0 °C 1003.9 hPa Calm     88% 0.00 mm 0.00 W/m2
03:14 29.0 °C 27.0 °C 1003.9 hPa ESE 3 km/h 4 km/h 87% 0.00 mm 0.00 W/m2
03:19 29.0 °C 27.0 °C 1003.7 hPa Calm     87% 0.00 mm 0.00 W/m2
03:24 29.0 °C 27.0 °C 1003.9 hPa NNE 5 km/h 8 km/h 87% 0.00 mm 0.00 W/m2
03:29 29.0 °C 27.0 °C 1003.9 hPa NE 4 km/h 4 km/h 87% 0.00 mm 0.00 W/m2
03:34 29.0 °C 27.0 °C 1004.0 hPa Calm   4 km/h 87% 0.00 mm 0.00 W/m2
03:39 29.0 °C 27.0 °C 1004.0 hPa Calm     87% 0.00 mm 0.00 W/m2
03:44 29.0 °C 27.0 °C 1003.8 hPa ESE 1 km/h 4 km/h 87% 0.00 mm 0.00 W/m2
03:49 29.0 °C 27.0 °C 1004.0 hPa East 1 km/h 4 km/h 88% 0.00 mm 0.00 W/m2
03:54 29.0 °C 27.0 °C 1004.0 hPa Calm   4 km/h 88% 0.00 mm 0.00 W/m2
03:59 29.0 °C 27.0 °C 1003.9 hPa SSE 1 km/h 4 km/h 88% 0.00 mm 0.00 W/m2
04:04 29.0 °C 27.0 °C 1003.9 hPa East 3 km/h 4 km/h 88% 0.00 mm 0.00 W/m2
04:09 29.0 °C 27.0 °C 1004.0 hPa East 1 km/h 4 km/h 88% 0.00 mm 0.00 W/m2
04:14 29.0 °C 27.0 °C 1004.0 hPa East 3 km/h 4 km/h 88% 0.00 mm 0.00 W/m2
04:19 29.0 °C 27.0 °C 1004.0 hPa Calm     88% 0.00 mm 0.00 W/m2
04:24 29.0 °C 27.0 °C 1004.1 hPa NNE 2 km/h 4 km/h 88% 0.00 mm 0.00 W/m2
04:29 29.0 °C 27.0 °C 1004.1 hPa Calm     88% 0.00 mm 0.00 W/m2
04:34 29.0 °C 27.0 °C 1004.1 hPa Calm     88% 0.00 mm 0.00 W/m2
04:39 29.0 °C 27.0 °C 1004.1 hPa ENE 3 km/h 4 km/h 88% 0.00 mm 0.00 W/m2
04:44 29.0 °C 27.0 °C 1004.3 hPa East 1 km/h 4 km/h 88% 0.00 mm 0.00 W/m2
04:49 29.0 °C 27.0 °C 1004.1 hPa ESE 1 km/h 4 km/h 88% 0.00 mm 0.00 W/m2
04:54 29.0 °C 27.0 °C 1004.4 hPa East 1 km/h 4 km/h 88% 0.00 mm 0.00 W/m2
04:59 29.0 °C 27.0 °C 1004.4 hPa NNE 3 km/h 4 km/h 88% 0.00 mm 0.00 W/m2
05:04 29.0 °C 27.0 °C 1004.4 hPa Calm     88% 0.00 mm 0.00 W/m2
05:09 29.0 °C 27.0 °C 1004.2 hPa NE 4 km/h 4 km/h 89% 0.00 mm 0.00 W/m2
05:14 29.0 °C 27.0 °C 1004.3 hPa NE 2 km/h 4 km/h 89% 0.00 mm 0.00 W/m2
05:19 29.0 °C 27.0 °C 1004.4 hPa Calm     89% 0.00 mm 0.00 W/m2
05:24 29.0 °C 27.0 °C 1004.3 hPa NE 1 km/h 4 km/h 89% 0.00 mm 0.00 W/m2
05:29 29.0 °C 27.0 °C 1004.3 hPa Calm     89% 0.00 mm 2.37 W/m2
05:34 29.0 °C 27.0 °C 1004.4 hPa NNE 5 km/h 8 km/h 89% 0.00 mm 5.52 W/m2
05:39 29.0 °C 27.0 °C 1004.4 hPa ENE 3 km/h 4 km/h 89% 0.00 mm 9.66 W/m2
05:44 29.0 °C 27.0 °C 1004.4 hPa Calm   4 km/h 89% 0.00 mm 15.84 W/m2
05:49 29.0 °C 27.0 °C 1004.4 hPa Calm     90% 0.00 mm 22.24 W/m2
05:54 29.0 °C 27.0 °C 1004.5 hPa NE 1 km/h 4 km/h 90% 0.00 mm 28.81 W/m2
05:59 29.0 °C 27.0 °C 1004.5 hPa Calm     90% 0.00 mm 34.39 W/m2
06:04 29.0 °C 27.0 °C 1004.7 hPa ESE 1 km/h 4 km/h 89% 0.00 mm 40.08 W/m2
06:09 29.0 °C 27.0 °C 1004.7 hPa Calm     89% 0.00 mm 47.82 W/m2
06:14 29.0 °C 27.0 °C 1004.9 hPa ENE 3 km/h 4 km/h 89% 0.00 mm 59.68 W/m2
06:19 29.0 °C 27.0 °C 1004.9 hPa ESE 5 km/h 8 km/h 89% 0.00 mm 93.34 W/m2
06:24 29.0 °C 27.0 °C 1004.9 hPa North 1 km/h 4 km/h 89% 0.00 mm 121.21 W/m2
06:29 30.0 °C 28.0 °C 1005.0 hPa East 5 km/h 8 km/h 89% 0.00 mm 133.90 W/m2
06:34 30.0 °C 28.0 °C 1005.0 hPa SE 5 km/h 8 km/h 88% 0.00 mm 139.46 W/m2
06:39 30.0 °C 28.0 °C 1005.1 hPa SE 8 km/h 12 km/h 87% 0.00 mm 146.31 W/m2
06:44 30.0 °C 28.0 °C 1005.2 hPa ESE 5 km/h 8 km/h 87% 0.00 mm 154.78 W/m2
06:49 30.0 °C 28.0 °C 1005.3 hPa SE 6 km/h 8 km/h 87% 0.00 mm 185.73 W/m2
06:54 30.0 °C 28.0 °C 1005.2 hPa ESE 7 km/h 8 km/h 86% 0.00 mm 223.04 W/m2
06:59 31.0 °C 28.0 °C 1005.3 hPa ENE 7 km/h 8 km/h 85% 0.00 mm 229.64 W/m2
07:04 31.0 °C 28.0 °C 1005.3 hPa ESE 3 km/h 4 km/h 84% 0.00 mm 238.28 W/m2
07:09 31.0 °C 28.0 °C 1005.5 hPa ESE 10 km/h 12 km/h 83% 0.00 mm 237.77 W/m2
07:14 31.0 °C 28.0 °C 1005.3 hPa East 6 km/h 8 km/h 83% 0.00 mm 255.12 W/m2
07:19 31.0 °C 28.0 °C 1005.3 hPa SE 10 km/h 12 km/h 84% 0.00 mm 283.50 W/m2
07:24 31.0 °C 28.0 °C 1005.5 hPa ESE 9 km/h 12 km/h 84% 0.00 mm 314.82 W/m2
07:29 32.0 °C 28.0 °C 1005.6 hPa SE 6 km/h 8 km/h 82% 0.00 mm 316.16 W/m2
07:34 32.0 °C 28.0 °C 1005.6 hPa ESE 6 km/h 8 km/h 81% 0.00 mm 317.14 W/m2
07:39 32.0 °C 28.0 °C 1005.7 hPa SE 10 km/h 12 km/h 80% 0.00 mm 356.36 W/m2
07:44 32.0 °C 28.0 °C 1005.7 hPa SE 5 km/h 8 km/h 81% 0.00 mm 347.33 W/m2
07:49 33.0 °C 28.0 °C 1005.9 hPa NNE 3 km/h 4 km/h 77% 0.00 mm 326.90 W/m2
07:54 33.0 °C 28.0 °C 1005.9 hPa SSE 10 km/h 12 km/h 79% 0.00 mm 180.64 W/m2
07:59 31.0 °C 27.0 °C 1005.9 hPa SSE 12 km/h 16 km/h 82% 0.00 mm 83.43 W/m2
08:04 31.0 °C 27.0 °C 1006.0 hPa SE 13 km/h 16 km/h 83% 0.00 mm 60.79 W/m2
08:09 30.0 °C 27.0 °C 1006.0 hPa SSE 10 km/h 12 km/h 84% 0.00 mm 289.47 W/m2
08:14 31.0 °C 28.0 °C 1005.9 hPa SE 6 km/h 8 km/h 84% 0.00 mm 350.17 W/m2
08:19 32.0 °C 28.0 °C 1006.0 hPa SSE 11 km/h 12 km/h 80% 0.00 mm 353.42 W/m2
08:24 32.0 °C 28.0 °C 1006.1 hPa SE 14 km/h 16 km/h 79% 0.00 mm 174.74 W/m2
08:29 32.0 °C 27.0 °C 1006.0 hPa SE 10 km/h 12 km/h 79% 0.00 mm 136.62 W/m2
08:34 31.0 °C 27.0 °C 1006.0 hPa SE 8 km/h 8 km/h 80% 0.00 mm 138.60 W/m2
08:39 31.0 °C 27.0 °C 1006.1 hPa SE 12 km/h 16 km/h 80% 0.00 mm 137.48 W/m2
08:44 32.0 °C 28.0 °C 1006.1 hPa SSE 7 km/h 8 km/h 79% 0.00 mm 344.74 W/m2
08:49 32.0 °C 28.0 °C 1006.1 hPa SSE 10 km/h 20 km/h 79% 0.00 mm 397.07 W/m2
08:54 33.0 °C 28.0 °C 1006.0 hPa South 8 km/h 12 km/h 79% 0.00 mm 430.79 W/m2
08:59 33.0 °C 28.0 °C 1006.2 hPa South 10 km/h 12 km/h 77% 0.00 mm 334.32 W/m2
09:04 32.0 °C 28.0 °C 1006.2 hPa SSW 6 km/h 8 km/h 77% 0.00 mm 395.36 W/m2
09:09 33.0 °C 28.0 °C 1006.0 hPa South 9 km/h 12 km/h 76% 0.00 mm 438.55 W/m2
09:14 33.0 °C 28.0 °C 1005.9 hPa South 9 km/h 12 km/h 74% 0.00 mm 456.51 W/m2
09:19 33.0 °C 28.0 °C 1005.9 hPa South 9 km/h 12 km/h 74% 0.00 mm 401.18 W/m2
09:24 33.0 °C 28.0 °C 1005.9 hPa South 5 km/h 8 km/h 74% 0.00 mm 405.05 W/m2
09:29 33.0 °C 27.0 °C 1006.0 hPa SW 8 km/h 12 km/h 71% 0.00 mm 392.67 W/m2
09:34 33.0 °C 27.0 °C 1006.1 hPa South 12 km/h 16 km/h 73% 0.00 mm 206.67 W/m2
09:39 33.0 °C 27.0 °C 1006.2 hPa South 13 km/h 16 km/h 73% 0.00 mm 420.59 W/m2
09:44 33.0 °C 28.0 °C 1006.2 hPa SSW 12 km/h 16 km/h 74% 0.00 mm 407.79 W/m2
09:49 34.0 °C 28.0 °C 1006.2 hPa South 9 km/h 12 km/h 72% 0.00 mm 428.56 W/m2
09:54 34.0 °C 28.0 °C 1006.4 hPa SSE 11 km/h 12 km/h 70% 0.00 mm 463.67 W/m2
09:59 34.0 °C 27.0 °C 1006.2 hPa ENE 10 km/h 12 km/h 69% 0.00 mm 469.35 W/m2
10:04 34.0 °C 28.0 °C 1006.2 hPa SSW 10 km/h 16 km/h 70% 0.00 mm 479.87 W/m2
10:09 34.0 °C 28.0 °C 1006.2 hPa SSW 9 km/h 12 km/h 70% 0.00 mm 489.22 W/m2
10:14 35.0 °C 28.0 °C 1006.2 hPa South 7 km/h 12 km/h 69% 0.00 mm 501.82 W/m2
10:19 35.0 °C 28.0 °C 1006.3 hPa South 10 km/h 12 km/h 70% 0.00 mm 503.24 W/m2
10:24 34.0 °C 28.0 °C 1006.1 hPa SSW 12 km/h 16 km/h 71% 0.00 mm 503.58 W/m2
10:29 34.0 °C 28.0 °C 1006.1 hPa South 12 km/h 16 km/h 72% 0.00 mm 505.68 W/m2
10:34 34.0 °C 28.0 °C 1006.1 hPa East 10 km/h 16 km/h 73% 0.00 mm 500.64 W/m2
10:39 34.0 °C 28.0 °C 1005.9 hPa SSW 14 km/h 16 km/h 72% 0.00 mm 506.05 W/m2
10:44 34.0 °C 28.0 °C 1006.0 hPa South 10 km/h 12 km/h 70% 0.00 mm 507.05 W/m2
10:49 35.0 °C 28.0 °C 1005.9 hPa SSW 10 km/h 16 km/h 70% 0.00 mm 516.11 W/m2
10:54 34.0 °C 28.0 °C 1005.9 hPa NW 14 km/h 20 km/h 70% 0.00 mm 510.31 W/m2
10:59 35.0 °C 28.0 °C 1005.9 hPa South 10 km/h 12 km/h 69% 0.00 mm 517.01 W/m2
11:04 35.0 °C 28.0 °C 1005.8 hPa SSW 12 km/h 16 km/h 68% 0.00 mm 507.03 W/m2
11:09 35.0 °C 28.0 °C 1005.9 hPa SSW 10 km/h 16 km/h 68% 0.00 mm 507.08 W/m2
11:14 36.0 °C 28.0 °C 1005.8 hPa WSW 17 km/h 20 km/h 66% 0.00 mm 523.74 W/m2
11:19 35.0 °C 28.0 °C 1005.9 hPa NW 19 km/h 20 km/h 68% 0.00 mm 506.34 W/m2
11:24 35.0 °C 28.0 °C 1006.0 hPa WNW 17 km/h 20 km/h 68% 0.00 mm 508.45 W/m2
11:29 35.0 °C 27.0 °C 1005.9 hPa NW 14 km/h 16 km/h 67% 0.00 mm 509.48 W/m2
11:34 34.0 °C 27.0 °C 1005.8 hPa SSW 19 km/h 24 km/h 67% 0.00 mm 517.18 W/m2
11:39 35.0 °C 27.0 °C 1005.6 hPa West 13 km/h 16 km/h 67% 0.00 mm 517.18 W/m2
11:44 35.0 °C 27.0 °C 1005.5 hPa West 14 km/h 16 km/h 67% 0.00 mm 522.05 W/m2
11:49 35.0 °C 27.0 °C 1005.4 hPa SSW 11 km/h 12 km/h 65% 0.00 mm 528.05 W/m2
11:54 35.0 °C 27.0 °C 1005.5 hPa NW 16 km/h 20 km/h 67% 0.00 mm 527.09 W/m2
11:59 35.0 °C 27.0 °C 1005.5 hPa West 16 km/h 20 km/h 66% 0.00 mm 528.10 W/m2
12:04 35.0 °C 27.0 °C 1005.5 hPa WSW 12 km/h 16 km/h 64% 0.00 mm 533.53 W/m2
12:09 35.0 °C 27.0 °C 1005.3 hPa West 18 km/h 20 km/h 66% 0.00 mm 535.24 W/m2
12:14 35.0 °C 28.0 °C 1005.3 hPa SSW 18 km/h 20 km/h 66% 0.00 mm 538.64 W/m2
12:19 36.0 °C 28.0 °C 1005.3 hPa NNW 14 km/h 16 km/h 64% 0.00 mm 543.36 W/m2
12:24 36.0 °C 28.0 °C 1005.3 hPa South 10 km/h 12 km/h 63% 0.00 mm 550.39 W/m2
12:29 36.0 °C 28.0 °C 1005.0 hPa SSE 8 km/h 12 km/h 63% 0.00 mm 559.19 W/m2
12:34 36.0 °C 27.0 °C 1004.9 hPa South 10 km/h 12 km/h 61% 0.00 mm 562.28 W/m2
12:39 36.0 °C 27.0 °C 1004.9 hPa SW 12 km/h 16 km/h 61% 0.00 mm 580.97 W/m2
12:44 36.0 °C 27.0 °C 1004.9 hPa SSW 15 km/h 20 km/h 63% 0.00 mm 582.00 W/m2
12:49 36.0 °C 27.0 °C 1004.8 hPa SW 10 km/h 12 km/h 63% 0.00 mm 582.95 W/m2
12:54 36.0 °C 28.0 °C 1004.7 hPa SSW 15 km/h 16 km/h 63% 0.00 mm 585.33 W/m2
12:59 36.0 °C 27.0 °C 1004.5 hPa South 11 km/h 12 km/h 61% 0.00 mm 596.14 W/m2
13:04 36.0 °C 27.0 °C 1004.8 hPa SSW 17 km/h 20 km/h 62% 0.00 mm 609.87 W/m2
13:09 36.0 °C 27.0 °C 1004.6 hPa South 15 km/h 16 km/h 62% 0.00 mm 620.51 W/m2
13:14 35.0 °C 27.0 °C 1004.3 hPa SSE 14 km/h 20 km/h 63% 0.00 mm 607.13 W/m2
13:19 36.0 °C 27.0 °C 1004.4 hPa South 13 km/h 16 km/h 63% 0.00 mm 625.08 W/m2
13:24 36.0 °C 27.0 °C 1004.4 hPa South 13 km/h 16 km/h 62% 0.00 mm 620.95 W/m2
13:29 36.0 °C 27.0 °C 1004.2 hPa South 15 km/h 20 km/h 62% 0.00 mm 534.82 W/m2
13:34 35.0 °C 27.0 °C 1004.1 hPa South 16 km/h 24 km/h 64% 0.00 mm 524.74 W/m2
13:39 35.0 °C 27.0 °C 1004.1 hPa South 15 km/h 16 km/h 64% 0.00 mm 536.27 W/m2
13:44 35.0 °C 27.0 °C 1004.0 hPa South 14 km/h 20 km/h 65% 0.00 mm 547.16 W/m2
13:49 35.0 °C 27.0 °C 1003.9 hPa SSE 17 km/h 20 km/h 63% 0.00 mm 590.17 W/m2
13:54 35.0 °C 28.0 °C 1004.4 hPa South 21 km/h 32 km/h 66% 0.00 mm 582.27 W/m2
13:59 35.0 °C 28.0 °C 1004.4 hPa SSE 20 km/h 24 km/h 69% 0.00 mm 612.02 W/m2
14:04 35.0 °C 28.0 °C 1004.4 hPa SSE 20 km/h 24 km/h 68% 0.00 mm 614.83 W/m2
14:09 35.0 °C 28.0 °C 1004.4 hPa SSE 21 km/h 24 km/h 68% 0.00 mm 622.00 W/m2
14:14 34.0 °C 27.0 °C 1004.2 hPa South 22 km/h 28 km/h 68% 0.00 mm 634.31 W/m2
14:19 35.0 °C 27.0 °C 1004.1 hPa SSE 20 km/h 28 km/h 66% 0.00 mm 624.35 W/m2
14:24 35.0 °C 27.0 °C 1004.1 hPa SSE 22 km/h 28 km/h 68% 0.00 mm 500.37 W/m2
14:29 34.0 °C 27.0 °C 1003.9 hPa SSE 21 km/h 28 km/h 68% 0.00 mm 591.74 W/m2
14:34 34.0 °C 27.0 °C 1003.8 hPa SSE 19 km/h 24 km/h 68% 0.00 mm 589.17 W/m2
14:39 35.0 °C 27.0 °C 1003.8 hPa SSE 22 km/h 28 km/h 66% 0.00 mm 579.77 W/m2
14:44 35.0 °C 27.0 °C 1003.5 hPa SSW 14 km/h 16 km/h 64% 0.00 mm 574.95 W/m2
14:49 35.0 °C 27.0 °C 1003.5 hPa South 15 km/h 16 km/h 64% 0.00 mm 569.40 W/m2
14:54 36.0 °C 27.0 °C 1003.4 hPa South 14 km/h 20 km/h 63% 0.00 mm 553.15 W/m2
14:59 36.0 °C 27.0 °C 1003.1 hPa South 14 km/h 20 km/h 63% 0.00 mm 540.97 W/m2
15:04 35.0 °C 27.0 °C 1003.2 hPa SSE 17 km/h 20 km/h 63% 0.00 mm 526.07 W/m2
15:09 35.0 °C 27.0 °C 1003.1 hPa South 17 km/h 24 km/h 64% 0.00 mm 521.96 W/m2
15:14 35.0 °C 27.0 °C 1003.0 hPa South 19 km/h 24 km/h 65% 0.00 mm 518.24 W/m2
15:19 35.0 °C 27.0 °C 1003.2 hPa SSE 18 km/h 28 km/h 67% 0.00 mm 511.34 W/m2
15:24 35.0 °C 27.0 °C 1003.3 hPa SSE 20 km/h 24 km/h 66% 0.00 mm 488.63 W/m2
15:29 35.0 °C 27.0 °C 1003.4 hPa SSE 22 km/h 28 km/h 65% 0.00 mm 481.05 W/m2
15:34 35.0 °C 26.0 °C 1003.3 hPa SSE 16 km/h 20 km/h 64% 0.00 mm 480.53 W/m2
15:39 35.0 °C 27.0 °C 1003.4 hPa SSE 22 km/h 24 km/h 67% 0.00 mm 464.24 W/m2
15:44 34.0 °C 27.0 °C 1003.4 hPa SE 22 km/h 24 km/h 68% 0.00 mm 441.60 W/m2
15:49 34.0 °C 27.0 °C 1003.5 hPa SE 19 km/h 24 km/h 67% 0.00 mm 432.99 W/m2
15:54 34.0 °C 27.0 °C 1003.6 hPa SSE 18 km/h 24 km/h 66% 0.00 mm 457.34 W/m2
15:59 34.0 °C 27.0 °C 1003.9 hPa SSE 21 km/h 24 km/h 66% 0.00 mm 461.62 W/m2
16:04 35.0 °C 27.0 °C 1003.9 hPa SSE 15 km/h 20 km/h 65% 0.00 mm 445.54 W/m2
16:09 35.0 °C 27.0 °C 1004.0 hPa SSE 15 km/h 20 km/h 66% 0.00 mm 425.87 W/m2
16:14 34.0 °C 27.0 °C 1004.2 hPa SSE 18 km/h 20 km/h 66% 0.00 mm 411.71 W/m2
16:19 34.0 °C 26.0 °C 1004.4 hPa South 15 km/h 20 km/h 65% 0.00 mm 405.07 W/m2
16:24 34.0 °C 26.0 °C 1004.4 hPa SSE 15 km/h 20 km/h 63% 0.00 mm 380.61 W/m2
16:29 34.0 °C 26.0 °C 1004.4 hPa South 15 km/h 16 km/h 64% 0.00 mm 342.29 W/m2
16:34 35.0 °C 27.0 °C 1004.3 hPa South 15 km/h 20 km/h 65% 0.00 mm 357.00 W/m2
16:39 35.0 °C 27.0 °C 1004.3 hPa SSW 13 km/h 16 km/h 65% 0.00 mm 362.77 W/m2
16:44 34.0 °C 27.0 °C 1004.5 hPa South 15 km/h 20 km/h 66% 0.00 mm 366.27 W/m2
16:49 34.0 °C 27.0 °C 1004.3 hPa South 11 km/h 16 km/h 66% 0.00 mm 348.19 W/m2
16:54 34.0 °C 27.0 °C 1004.2 hPa SSE 20 km/h 24 km/h 67% 0.00 mm 341.66 W/m2
16:59 34.0 °C 27.0 °C 1004.2 hPa South 10 km/h 16 km/h 67% 0.00 mm 333.46 W/m2
17:04 34.0 °C 27.0 °C 1004.4 hPa South 14 km/h 20 km/h 67% 0.00 mm 320.37 W/m2
17:09 34.0 °C 27.0 °C 1004.5 hPa SSW 13 km/h 16 km/h 69% 0.00 mm 282.71 W/m2
17:14 34.0 °C 27.0 °C 1004.5 hPa SSW 13 km/h 16 km/h 69% 0.00 mm 282.22 W/m2
17:19 34.0 °C 27.0 °C 1004.5 hPa South 13 km/h 16 km/h 68% 0.00 mm 276.94 W/m2
17:24 33.0 °C 26.0 °C 1004.3 hPa SSE 12 km/h 16 km/h 67% 0.00 mm 107.38 W/m2
17:29 33.0 °C 26.0 °C 1004.5 hPa SSW 10 km/h 16 km/h 68% 0.00 mm 94.90 W/m2
17:34 33.0 °C 26.0 °C 1004.6 hPa South 11 km/h 16 km/h 70% 0.00 mm 86.36 W/m2
17:39 33.0 °C 27.0 °C 1004.7 hPa South 13 km/h 16 km/h 71% 0.00 mm 82.28 W/m2
17:44 33.0 °C 28.0 °C 1004.7 hPa South 11 km/h 12 km/h 75% 0.00 mm 132.39 W/m2
17:49 33.0 °C 28.0 °C 1004.9 hPa SSW 9 km/h 12 km/h 76% 0.00 mm 147.04 W/m2
17:54 32.0 °C 28.0 °C 1004.9 hPa South 15 km/h 20 km/h 76% 0.00 mm 122.14 W/m2
17:59 32.0 °C 28.0 °C 1005.0 hPa South 15 km/h 16 km/h 77% 0.00 mm 72.64 W/m2
18:04 32.0 °C 28.0 °C 1004.9 hPa South 12 km/h 16 km/h 78% 0.00 mm 68.26 W/m2
18:09 32.0 °C 28.0 °C 1005.1 hPa South 11 km/h 16 km/h 79% 0.00 mm 27.09 W/m2
18:14 32.0 °C 28.0 °C 1004.9 hPa SSE 10 km/h 16 km/h 80% 0.00 mm 23.26 W/m2
18:19 32.0 °C 28.0 °C 1005.0 hPa South 12 km/h 16 km/h 81% 0.00 mm 9.89 W/m2
18:24 32.0 °C 28.0 °C 1004.8 hPa South 14 km/h 20 km/h 81% 0.00 mm 4.93 W/m2
18:29 31.0 °C 28.0 °C 1005.0 hPa South 11 km/h 16 km/h 81% 0.00 mm 1.75 W/m2
18:34 31.0 °C 28.0 °C 1005.0 hPa South 11 km/h 16 km/h 81% 0.00 mm 0.00 W/m2
18:39 31.0 °C 28.0 °C 1004.9 hPa South 13 km/h 16 km/h 81% 0.00 mm 0.00 W/m2
18:44 31.0 °C 28.0 °C 1004.9 hPa South 14 km/h 16 km/h 81% 0.00 mm 0.00 W/m2
18:49 31.0 °C 28.0 °C 1005.0 hPa South 10 km/h 12 km/h 81% 0.00 mm 0.00 W/m2
18:54 31.0 °C 28.0 °C 1005.0 hPa SSE 8 km/h 12 km/h 81% 0.00 mm 0.00 W/m2
18:59 31.0 °C 28.0 °C 1005.0 hPa South 8 km/h 12 km/h 81% 0.00 mm 0.00 W/m2
19:04 31.0 °C 28.0 °C 1005.1 hPa South 12 km/h 20 km/h 81% 0.00 mm 0.00 W/m2
19:09 31.0 °C 28.0 °C 1005.2 hPa South 10 km/h 16 km/h 81% 0.00 mm 0.00 W/m2
19:14 31.0 °C 28.0 °C 1005.2 hPa South 10 km/h 16 km/h 81% 0.00 mm 0.00 W/m2
19:19 31.0 °C 28.0 °C 1005.2 hPa South 12 km/h 16 km/h 81% 0.00 mm 0.00 W/m2
19:24 31.0 °C 27.0 °C 1005.1 hPa South 12 km/h 16 km/h 81% 0.00 mm 0.00 W/m2
19:29 31.0 °C 27.0 °C 1005.2 hPa SSW 10 km/h 12 km/h 81% 0.00 mm 0.00 W/m2
19:34 31.0 °C 27.0 °C 1005.2 hPa South 10 km/h 12 km/h 81% 0.00 mm 0.00 W/m2
19:39 31.0 °C 27.0 °C 1005.1 hPa South 6 km/h 8 km/h 81% 0.00 mm 0.00 W/m2
19:44 31.0 °C 27.0 °C 1005.2 hPa South 9 km/h 12 km/h 81% 0.00 mm 0.00 W/m2
19:49 31.0 °C 27.0 °C 1005.1 hPa South 10 km/h 12 km/h 81% 0.00 mm 0.00 W/m2
19:54 31.0 °C 27.0 °C 1005.0 hPa South 9 km/h 12 km/h 81% 0.00 mm 0.00 W/m2
19:59 31.0 °C 27.0 °C 1005.2 hPa SSE 9 km/h 12 km/h 81% 0.00 mm 0.00 W/m2
20:04 31.0 °C 27.0 °C 1005.2 hPa South 6 km/h 8 km/h 81% 0.00 mm 0.00 W/m2
20:09 31.0 °C 27.0 °C 1005.1 hPa South 6 km/h 8 km/h 81% 0.00 mm 0.00 W/m2
20:14 31.0 °C 27.0 °C 1005.2 hPa South 5 km/h 8 km/h 81% 0.00 mm 0.00 W/m2
20:19 31.0 °C 27.0 °C 1005.2 hPa Calm   4 km/h 81% 0.00 mm 0.00 W/m2
20:24 31.0 °C 28.0 °C 1005.3 hPa SSW 5 km/h 8 km/h 81% 0.00 mm 0.00 W/m2
20:29 31.0 °C 27.0 °C 1005.2 hPa South 4 km/h 4 km/h 81% 0.00 mm 0.00 W/m2
20:34 31.0 °C 27.0 °C 1005.3 hPa South 5 km/h 8 km/h 81% 0.00 mm 0.00 W/m2
20:39 31.0 °C 27.0 °C 1005.5 hPa South 5 km/h 8 km/h 81% 0.00 mm 0.00 W/m2
20:44 31.0 °C 27.0 °C 1005.6 hPa SSE 7 km/h 8 km/h 81% 0.00 mm 0.00 W/m2
20:49 31.0 °C 27.0 °C 1005.8 hPa SSE 5 km/h 8 km/h 81% 0.00 mm 0.00 W/m2
20:54 31.0 °C 27.0 °C 1005.8 hPa South 5 km/h 8 km/h 81% 0.00 mm 0.00 W/m2
20:59 31.0 °C 28.0 °C 1005.9 hPa SSW 2 km/h 4 km/h 81% 0.00 mm 0.00 W/m2
21:04 31.0 °C 28.0 °C 1006.0 hPa Calm   4 km/h 81% 0.00 mm 0.00 W/m2
21:09 31.0 °C 28.0 °C 1006.1 hPa Calm     81% 0.00 mm 0.00 W/m2
21:14 31.0 °C 27.0 °C 1006.1 hPa SW 5 km/h 8 km/h 81% 0.00 mm 0.00 W/m2
21:19 31.0 °C 27.0 °C 1006.0 hPa South 4 km/h 4 km/h 80% 0.00 mm 0.00 W/m2
21:24 31.0 °C 27.0 °C 1006.0 hPa South 4 km/h 4 km/h 81% 0.00 mm 0.00 W/m2
21:29 31.0 °C 28.0 °C 1006.0 hPa South 6 km/h 8 km/h 82% 0.00 mm 0.00 W/m2
21:34 31.0 °C 27.0 °C 1006.1 hPa SSE 6 km/h 8 km/h 81% 0.00 mm 0.00 W/m2
21:39 31.0 °C 27.0 °C 1006.4 hPa South 7 km/h 12 km/h 81% 0.00 mm 0.00 W/m2
21:44 31.0 °C 27.0 °C 1006.3 hPa South 5 km/h 12 km/h 81% 0.00 mm 0.00 W/m2
21:49 31.0 °C 27.0 °C 1006.1 hPa South 6 km/h 8 km/h 82% 0.00 mm 0.00 W/m2
21:54 31.0 °C 27.0 °C 1006.3 hPa South 7 km/h 8 km/h 81% 0.00 mm 0.00 W/m2
21:59 31.0 °C 27.0 °C 1006.3 hPa SSE 10 km/h 12 km/h 81% 0.00 mm 0.00 W/m2
22:04 31.0 °C 27.0 °C 1006.3 hPa SSE 8 km/h 12 km/h 81% 0.00 mm 0.00 W/m2
22:09 31.0 °C 27.0 °C 1006.5 hPa SSE 12 km/h 16 km/h 81% 0.00 mm 0.00 W/m2
22:14 31.0 °C 27.0 °C 1006.6 hPa SSE 9 km/h 12 km/h 80% 0.00 mm 0.00 W/m2
22:19 31.0 °C 27.0 °C 1006.6 hPa SSE 9 km/h 12 km/h 81% 0.00 mm 0.00 W/m2
22:24 31.0 °C 27.0 °C 1006.5 hPa SSE 11 km/h 12 km/h 82% 0.00 mm 0.00 W/m2
22:29 31.0 °C 27.0 °C 1006.5 hPa SSE 10 km/h 12 km/h 82% 0.00 mm 0.00 W/m2
22:34 31.0 °C 27.0 °C 1006.5 hPa SSE 10 km/h 12 km/h 83% 0.00 mm 0.00 W/m2
22:39 31.0 °C 27.0 °C 1006.6 hPa SSE 11 km/h 12 km/h 82% 0.00 mm 0.00 W/m2
22:44 31.0 °C 27.0 °C 1006.5 hPa SSE 13 km/h 16 km/h 83% 0.00 mm 0.00 W/m2
22:49 30.0 °C 27.0 °C 1006.5 hPa SSE 10 km/h 12 km/h 83% 0.00 mm 0.00 W/m2
22:54 30.0 °C 27.0 °C 1006.6 hPa SE 12 km/h 16 km/h 83% 0.00 mm 0.00 W/m2
22:59 30.0 °C 27.0 °C 1006.5 hPa SE 10 km/h 16 km/h 83% 0.00 mm 0.00 W/m2
23:04 30.0 °C 27.0 °C 1006.4 hPa SSE 9 km/h 12 km/h 82% 0.00 mm 0.00 W/m2
23:09 30.0 °C 27.0 °C 1006.4 hPa SSE 12 km/h 16 km/h 82% 0.00 mm 0.00 W/m2
23:14 30.0 °C 27.0 °C 1006.4 hPa SSE 10 km/h 12 km/h 82% 0.00 mm 0.00 W/m2
23:19 30.0 °C 27.0 °C 1006.2 hPa SSE 12 km/h 16 km/h 82% 0.00 mm 0.00 W/m2
23:24 30.0 °C 27.0 °C 1006.3 hPa SSE 10 km/h 16 km/h 82% 0.00 mm 0.00 W/m2
23:29 30.0 °C 27.0 °C 1006.2 hPa SSE 7 km/h 8 km/h 82% 0.00 mm 0.00 W/m2
23:34 30.0 °C 27.0 °C 1006.1 hPa SE 9 km/h 12 km/h 82% 0.00 mm 0.00 W/m2
23:39 30.0 °C 27.0 °C 1006.1 hPa SSE 8 km/h 12 km/h 82% 0.00 mm 0.00 W/m2
23:44 30.0 °C 27.0 °C 1006.3 hPa SSE 9 km/h 12 km/h 82% 0.00 mm 0.00 W/m2
23:49 30.0 °C 27.0 °C 1006.1 hPa SSE 9 km/h 16 km/h 82% 0.00 mm 0.00 W/m2
23:54 30.0 °C 27.0 °C 1006.3 hPa SE 13 km/h 16 km/h 82% 0.00 mm 0.00 W/m2
23:59 30.0 °C 27.0 °C 1006.1 hPa SSE 13 km/h 16 km/h 82% 0.00 mm 0.00 W/m2
PIMOHWEATHER Philippines
Compliments of Weather Underground - 2 mb